SQ9RHX-13 Weather Reports


time (UTC)temp
F
wind
direction
speed
knots
gust
knots
rain 1hr
in
rain 24hr
in
rain mn
in
humidity
%
barometer
mb
20260506225005 58 357 0.0 1.7 0.10 0.00 0.09 97 1011.3
20260506224503 57 169 0.9 1.7 0.10 0.00 0.08 97 1011.7
20260506224003 57 7 0.0 0.0 0.09 0.00 0.07 97 1011.2
20260506223505 57 40 0.0 0.0 0.07 0.00 0.05 97 1011.4
20260506223003 57 348 0.0 1.7 0.03 0.00 0.01 97 1011.5
20260506222503 57 39 0.0 0.9 0.03 0.00 0.00 97 1011.0
20260506222003 57 61 0.0 0.9 0.06 0.00 0.00 97 1010.7
20260506221504 57 61 0.0 0.0 0.08 0.00 0.00 97 1011.0
20260506221002 57 62 0.0 0.0 0.09 0.00 0.00 96 1010.6
20260506220504 57 62 0.0 0.0 0.10 0.00 0.00 96 1010.6
20260506220004 57 68 0.0 0.0 0.11 0.00 0.68 96 1010.6
20260506215504 57 47 0.0 0.9 0.11 0.00 0.67 96 1010.3
20260506215004 57 27 0.0 0.9 0.11 0.00 0.67 96 1010.3
20260506214503 57 37 0.0 0.0 0.11 0.00 0.66 96 1010.2
20260506214003 57 43 0.0 0.0 0.11 0.00 0.66 96 1010.2
20260506213504 57 39 0.0 1.7 0.12 0.00 0.66 96 1010.0
20260506213004 57 32 1.7 2.6 0.11 0.00 0.65 96 1010.0
20260506212502 57 41 0.0 0.9 0.10 0.00 0.64 96 1010.4
20260506212003 57 91 0.9 1.7 0.07 0.00 0.61 96 1010.5
20260506211504 57 39 0.0 0.0 0.08 0.00 0.60 96 1010.7
20260506211002 57 39 0.0 0.0 0.08 0.00 0.59 96 1010.7
20260506210503 57 27 0.9 0.9 0.07 0.00 0.58 96 1010.5
20260506210002 57 65 0.0 0.0 0.08 0.00 0.57 96 1010.9
20260506205502 57 65 0.0 0.0 0.08 0.00 0.56 96 1010.9
20260506205002 57 65 0.0 0.0 0.09 0.00 0.55 96 1011.0
20260506204503 57 65 0.0 0.0 0.11 0.00 0.55 96 1011.2
20260506204004 57 65 0.0 0.0 0.11 0.00 0.54 96 1011.0
20260506203504 57 65 0.0 0.0 0.12 0.00 0.54 96 1010.6
20260506203002 57 65 0.0 0.9 0.13 0.00 0.54 96 1010.5
20260506202503 57 64 0.0 0.0 0.13 0.00 0.54 95 1010.7
20260506202003 57 49 0.0 0.9 0.12 0.00 0.53 95 1010.3
20260506201503 57 54 0.0 0.9 0.12 0.00 0.52 95 1010.4
20260506201004 57 41 0.0 0.9 0.11 0.00 0.51 95 1010.4
20260506200504 57 20 0.0 0.0 0.10 0.00 0.50 95 1010.8
20260506200003 57 19 0.0 0.9 0.11 0.00 0.49 95 1011.0
20260506195504 58 4 0.0 0.0 0.10 0.00 0.47 95 1010.8
20260506195003 58 334 0.0 0.9 0.11 0.00 0.45 95 1011.0
20260506194502 58 356 1.7 2.6 0.13 0.00 0.43 95 1010.9
20260506194002 58 2 0.0 1.7 0.16 0.00 0.42 95 1011.0
20260506193503 58 359 0.9 0.9 0.19 0.00 0.42 95 1010.7
20260506193002 58 20 0.0 0.0 0.20 0.00 0.41 94 1010.3
20260506192503 58 6 0.0 0.9 0.22 0.00 0.41 94 1010.5
20260506192004 58 21 0.0 0.9 0.23 0.00 0.40 94 1010.5
20260506191504 58 12 0.0 0.9 0.27 0.00 0.40 94 1010.5
20260506191003 58 39 0.0 0.0 0.29 0.00 0.40 94 1010.5
20260506190504 58 47 0.0 0.0 0.31 0.00 0.39 93 1010.6
20260506190003 58 50 0.0 0.0 0.31 0.00 0.38 93 1010.6
20260506185504 58 50 0.0 0.0 0.29 0.00 0.36 93 1010.5
20260506185004 58 49 0.0 0.0 0.26 0.00 0.33 92 1010.4
20260506184503 58 52 0.0 0.0 0.23 0.00 0.29 92 1010.5
20260506184002 59 53 0.0 0.0 0.20 0.00 0.25 92 1010.7
20260506183504 59 59 0.0 0.9 0.18 0.00 0.23 91 1010.6
20260506183005 59 83 0.0 0.9 0.15 0.00 0.20 91 1010.6
20260506182503 59 10 0.0 0.0 0.13 0.00 0.18 90 1010.3
20260506182005 59 10 0.0 0.0 0.10 0.00 0.15 89 1010.3
20260506181504 60 16 0.0 0.0 0.06 0.00 0.11 87 1010.0
20260506181004 60 95 0.0 0.9 0.04 0.00 0.09 86 1009.8
20260506180502 60 114 0.0 0.9 0.03 0.00 0.07 85 1009.7
20260506180004 60 15 0.9 4.3 0.04 0.00 0.07 86 1009.7
20260506175503 61 174 1.7 1.7 0.05 0.00 0.07 85 1009.9
20260506175004 61 137 1.7 2.6 0.05 0.00 0.06 85 1009.7
20260506174503 61 140 0.9 1.7 0.05 0.00 0.05 85 1009.4
20260506174004 61 143 0.9 1.7 0.05 0.00 0.05 85 1009.5
20260506173506 61 146 0.9 1.7 0.05 0.00 0.05 87 1009.3
20260506173002 61 128 0.9 0.9 0.05 0.00 0.05 88 1008.9
20260506172503 61 118 0.0 0.9 0.05 0.00 0.05 88 1008.6
20260506172004 61 117 0.0 0.0 0.05 0.00 0.05 87 1008.5
20260506171504 62 117 0.0 0.0 0.05 0.00 0.05 85 1008.5
20260506171003 62 119 0.0 0.0 0.05 0.00 0.05 82 1008.9
20260506170503 63 132 1.7 2.6 0.04 0.00 0.04 77 1008.9
20260506170005 63 161 2.6 6.1 0.03 0.00 0.03 75 1008.9
20260506165503 65 173 3.5 6.1 0.02 0.00 0.02 70 1009.0
20260506165004 68 148 4.3 7.8 0.00 0.00 0.00 62 1009.2
20260506164503 72 185 5.2 7.0 0.00 0.00 0.00 48 1008.9
20260506164003 73 196 1.7 2.6 0.00 0.00 0.00 43 1008.5
20260506163502 73 167 0.9 1.7 0.00 0.00 0.00 41 1008.6
20260506163004 73 15 0.0 0.9 0.00 0.00 0.00 42 1008.5
20260506162503 73 144 0.0 0.9 0.00 0.00 0.00 42 1008.6
20260506162003 73 19 0.0 0.0 0.00 0.00 0.00 42 1008.5
20260506161504 73 322 0.0 0.0 0.00 0.00 0.00 43 1008.7
20260506161002 73 124 0.0 0.0 0.00 0.00 0.00 42 1008.6
20260506160505 73 130 0.9 2.6 0.00 0.00 0.00 40 1008.6
20260506160003 74 234 2.6 2.6 0.00 0.00 0.00 40 1008.9
20260506155503 74 192 2.6 4.3 0.00 0.00 0.00 40 1008.8
20260506155006 75 147 0.0 6.1 0.00 0.00 0.00 39 1008.7
20260506154503 77 201 1.7 2.6 0.00 0.00 0.00 38 1008.7
20260506154003 77 187 1.7 1.7 0.00 0.00 0.00 37 1008.8
20260506153503 77 8 1.7 5.2 0.00 0.00 0.00 37 1008.6
20260506153004 77 342 2.6 4.3 0.00 0.00 0.00 37 1008.7
20260506152505 77 306 1.7 2.6 0.00 0.00 0.00 37 1008.7
20260506152003 77 173 1.7 2.6 0.00 0.00 0.00 37 1008.8
20260506151506 78 35 0.9 4.3 0.00 0.00 0.00 36 1008.9
20260506151004 78 323 0.9 1.7 0.00 0.00 0.00 37 1008.8
20260506150502 77 97 0.9 5.2 0.00 0.00 0.00 37 1008.9
20260506150003 76 294 1.7 1.7 0.00 0.00 0.00 39 1009.0
20260506145503 76 245 3.5 7.0 0.00 0.00 0.00 38 1009.1
20260506145004 77 191 2.6 4.3 0.00 0.00 0.00 37 1009.1
20260506144504 78 18 0.9 4.3 0.00 0.00 0.00 38 1009.0
20260506144005 77 171 0.9 6.1 0.00 0.00 0.00 39 1009.1
20260506143503 77 197 1.7 5.2 0.00 0.00 0.00 40 1009.1
20260506143003 76 327 2.6 6.1 0.00 0.00 0.00 39 1009.4
20260506142502 76 118 0.0 4.3 0.00 0.00 0.00 40 1009.3
20260506142003 75 321 1.7 4.3 0.00 0.00 0.00 42 1009.4
20260506141504 74 293 1.7 2.6 0.00 0.00 0.00 43 1009.4
20260506141005 74 337 2.6 5.2 0.00 0.00 0.00 42 1009.6
20260506140503 75 145 2.6 4.3 0.00 0.00 0.00 41 1009.6
20260506140004 76 299 2.6 6.1 0.00 0.00 0.00 40 1009.6
20260506135504 75 215 3.5 7.0 0.00 0.00 0.00 41 1009.6
20260506135005 74 314 1.7 6.1 0.00 0.00 0.00 43 1009.6
20260506134504 75 286 0.9 2.6 0.00 0.00 0.00 41 1009.7
20260506134003 74 86 2.6 7.0 0.00 0.00 0.00 42 1009.9
20260506133503 74 202 3.5 6.1 0.00 0.00 0.00 41 1009.8
20260506133002 74 178 3.5 6.1 0.00 0.00 0.00 41 1009.5
20260506132502 74 181 2.6 4.3 0.00 0.00 0.00 43 1009.6
20260506132002 76 240 1.7 9.6 0.00 0.00 0.00 42 1009.7
20260506131504 77 334 2.6 6.1 0.00 0.00 0.00 41 1009.9
20260506131004 77 242 4.3 7.0 0.00 0.00 0.00 41 1009.8
20260506130504 76 106 2.6 4.3 0.00 0.00 0.00 44 1009.7
20260506130005 75 283 0.9 2.6 0.00 0.00 0.00 44 1009.6
20260506125504 73 188 4.3 7.0 0.00 0.00 0.00 45 1009.7
20260506125004 72 281 2.6 7.0 0.00 0.00 0.00 46 1009.8
20260506124503 72 194 5.2 7.8 0.00 0.00 0.00 46 1010.1
20260506124004 73 267 4.3 7.8 0.00 0.00 0.00 45 1009.9
20260506123503 73 158 4.3 6.1 0.00 0.00 0.00 45 1010.1
20260506123003 74 214 4.3 13.0 0.00 0.00 0.00 45 1009.8
20260506122504 73 248 4.3 6.1 0.00 0.00 0.00 46 1009.9
20260506122004 73 150 4.3 6.1 0.00 0.00 0.00 47 1010.0
20260506121502 73 185 2.6 7.8 0.00 0.00 0.00 47 1009.8
20260506121005 73 242 3.5 9.6 0.00 0.00 0.00 46 1009.6
20260506120503 73 201 4.3 7.0 0.00 0.00 0.00 46 1009.6
20260506120003 72 270 2.6 5.2 0.00 0.00 0.00 47 1009.8
20260506115503 72 185 1.7 7.0 0.00 0.00 0.00 47 1009.7
20260506115003 73 188 5.2 8.7 0.00 0.00 0.00 46 1009.7
20260506114506 72 180 8.7 12.2 0.00 0.00 0.00 46 1009.7
20260506114003 72 171 2.6 8.7 0.00 0.00 0.00 47 1009.7
20260506113503 72 48 0.9 5.2 0.00 0.00 0.00 48 1009.9
20260506113004 71 195 2.6 7.8 0.00 0.00 0.00 49 1009.8
20260506112503 71 182 3.5 8.7 0.00 0.00 0.00 49 1009.7
20260506112003 71 302 2.6 7.0 0.00 0.00 0.00 49 1009.9
20260506111504 71 184 3.5 7.8 0.00 0.00 0.00 49 1009.8
20260506111003 71 189 6.1 7.8 0.00 0.00 0.00 49 1009.8
20260506110505 71 270 2.6 7.0 0.00 0.00 0.00 50 1009.8
20260506110002 70 124 2.6 5.2 0.00 0.00 0.00 51 1009.8
20260506105502 70 195 4.3 7.8 0.00 0.00 0.00 51 1009.9
20260506105005 70 308 2.6 7.8 0.00 0.00 0.00 52 1010.0
20260506104505 69 196 2.6 5.2 0.00 0.00 0.00 52 1009.9
20260506104003 70 142 6.1 11.3 0.00 0.00 0.00 51 1009.8
20260506103502 71 195 3.5 5.2 0.00 0.00 0.00 50 1009.9
20260506103003 70 191 0.9 2.6 0.00 0.00 0.00 52 1009.9
20260506102503 69 80 0.0 5.2 0.00 0.00 0.00 53 1009.7
20260506102004 69 170 3.5 7.0 0.00 0.00 0.00 53 1010.0
20260506101505 70 197 4.3 8.7 0.00 0.00 0.00 51 1010.1
20260506101003 70 123 3.5 5.2 0.00 0.00 0.00 51 1009.9
20260506100504 71 185 0.9 7.0 0.00 0.00 0.00 51 1010.1
20260506100005 71 188 4.3 6.1 0.00 0.00 0.00 50 1010.0
20260506095504 71 298 2.6 4.3 0.00 0.00 0.00 51 1009.9
20260506095003 71 196 2.6 5.2 0.00 0.00 0.00 52 1009.9
20260506094504 70 164 2.6 6.1 0.00 0.00 0.00 53 1009.8
20260506094002 70 156 2.6 6.1 0.00 0.00 0.00 54 1009.9
20260506093504 69 177 3.5 6.1 0.00 0.00 0.00 56 1009.8
20260506093003 69 275 0.9 5.2 0.00 0.00 0.00 56 1009.8
20260506092503 68 320 0.9 6.1 0.00 0.00 0.00 59 1009.8
20260506092004 67 46 0.9 5.2 0.00 0.00 0.00 61 1010.0
20260506091504 68 262 1.7 2.6 0.00 0.00 0.00 60 1010.0
20260506091002 67 152 0.9 1.7 0.00 0.00 0.00 60 1010.0
20260506090504 67 329 1.7 4.3 0.00 0.00 0.00 61 1009.8
20260506090004 67 206 1.7 5.2 0.00 0.00 0.00 61 1009.7
20260506085503 67 45 2.6 2.6 0.00 0.00 0.00 60 1009.9
20260506085003 68 25 0.9 4.3 0.00 0.00 0.00 60 1009.6
20260506084504 68 185 5.2 7.0 0.00 0.00 0.00 59 1009.6
20260506084003 69 262 1.7 2.6 0.00 0.00 0.00 60 1009.7
20260506083502 69 277 1.7 5.2 0.00 0.00 0.00 59 1009.7
20260506083003 69 194 2.6 4.3 0.00 0.00 0.00 59 1009.7
20260506082503 69 152 0.9 1.7 0.00 0.00 0.00 60 1009.8
20260506082005 68 43 0.9 2.6 0.00 0.00 0.00 60 1009.7
20260506081503 67 286 1.7 2.6 0.00 0.00 0.00 63 1009.8
20260506081002 68 299 1.7 5.2 0.00 0.00 0.00 61 1009.7
20260506080503 67 261 0.9 4.3 0.00 0.00 0.00 63 1009.8
20260506073502 67 302 4.3 5.2 0.00 0.00 0.00 64 1009.6
20260506073003 65 171 3.5 5.2 0.00 0.00 0.00 67 1009.4
20260506072503 65 301 0.9 2.6 0.00 0.00 0.00 68 1009.4
20260506072005 65 214 2.6 4.3 0.00 0.00 0.00 67 1009.4
20260506071503 64 140 0.0 1.7 0.00 0.00 0.00 69 1009.2
20260506071003 65 314 1.7 4.3 0.00 0.00 0.00 66 1009.3
20260506070504 65 80 1.7 2.6 0.00 0.00 0.00 66 1009.3
20260506062503 60 55 0.0 1.7 0.00 0.00 0.00 75 1009.3
20260506062005 59 199 2.6 2.6 0.00 0.00 0.00 75 1009.3
20260506061504 58 167 0.0 1.7 0.00 0.00 0.00 77 1009.6
20260506061005 57 145 0.0 1.7 0.00 0.00 0.00 79 1009.5
20260506060503 58 154 0.0 0.9 0.00 0.00 0.00 78 1009.4
20260506051004 56 132 0.0 0.9 0.00 0.00 0.00 82 1009.1
20260506050502 56 13 0.0 0.9 0.00 0.00 0.00 81 1009.0
20260506045003 55 44 0.0 0.0 0.00 0.00 0.00 84 1008.8
20260506044503 55 329 1.7 1.7 0.00 0.00 0.00 85 1008.8
20260506044004 54 172 0.9 0.9 0.00 0.00 0.00 86 1009.1
20260506043503 54 10 0.0 0.9 0.00 0.00 0.00 88 1008.9
20260506043003 53 88 0.0 0.9 0.00 0.00 0.00 90 1008.8
20260506042502 53 12 0.0 1.7 0.00 0.00 0.00 91 1008.5
20260506042002 52 359 0.0 0.9 0.00 0.00 0.00 93 1008.4
20260506041505 52 14 0.0 0.0 0.00 0.00 0.00 94 1008.7
20260506041004 51 39 0.0 0.0 0.00 0.00 0.00 94 1008.7
20260506040502 51 20 0.0 0.0 0.00 0.00 0.00 94 1008.9
20260506040005 51 20 0.0 0.0 0.00 0.00 0.00 94 1008.7
20260506035504 51 20 0.0 0.0 0.00 0.00 0.00 94 1008.8
20260506035003 50 20 0.0 0.0 0.00 0.00 0.00 94 1008.5
20260506034503 49 20 0.0 0.0 0.00 0.00 0.00 94 1008.5
20260506034004 49 20 0.0 0.0 0.00 0.00 0.00 93 1008.1
20260506033503 49 20 0.0 0.0 0.00 0.00 0.00 93 1008.1
20260506033003 49 20 0.0 0.0 0.00 0.00 0.00 92 1008.1
20260506032503 49 20 0.0 0.0 0.00 0.00 0.00 92 1008.1
20260506032002 49 20 0.0 0.0 0.00 0.00 0.00 92 1008.2
20260506031503 49 20 0.0 0.0 0.00 0.00 0.00 92 1008.1
20260506031004 50 20 0.0 0.0 0.00 0.00 0.00 91 1008.1
20260506030503 50 20 0.0 0.0 0.00 0.00 0.00 91 1008.2
20260506030003 50 20 0.0 0.0 0.00 0.00 0.00 91 1008.2
20260506025504 51 20 0.0 0.0 0.00 0.00 0.00 91 1008.3
20260506025004 51 20 0.0 0.0 0.00 0.00 0.00 91 1008.4
20260506024505 51 20 0.0 0.0 0.00 0.00 0.00 91 1008.6
20260506024003 51 20 0.0 0.0 0.00 0.00 0.00 91 1008.6
20260506023503 51 44 0.0 0.0 0.00 0.00 0.00 91 1008.6
20260506023005 51 20 0.0 0.0 0.00 0.00 0.00 92 1008.8
20260506022502 51 14 0.0 0.9 0.00 0.00 0.00 92 1008.9
20260506022003 50 10 0.0 0.9 0.00 0.00 0.00 92 1009.1
20260506021503 50 18 0.0 0.0 0.00 0.00 0.00 91 1008.7
20260506021004 51 18 0.0 0.0 0.00 0.00 0.00 91 1008.8
20260506020505 51 18 0.0 0.0 0.00 0.00 0.00 92 1008.8
20260506020003 51 18 0.0 0.0 0.00 0.00 0.00 92 1009.0
20260506015506 51 18 0.0 0.0 0.00 0.00 0.00 92 1008.9
20260506015005 50 19 0.0 0.0 0.00 0.00 0.00 92 1008.8
20260506014503 50 19 0.0 0.0 0.00 0.00 0.00 92 1008.6
20260506014004 49 24 0.0 0.0 0.00 0.00 0.00 91 1008.9
20260506013503 50 24 0.0 0.0 0.00 0.00 0.00 91 1008.8
20260506013003 50 24 0.0 0.0 0.00 0.00 0.00 91 1008.9
20260506012506 50 24 0.0 0.0 0.00 0.00 0.00 91 1008.7
20260506012003 50 24 0.0 0.0 0.00 0.00 0.00 91 1008.9
20260506011503 50 24 0.0 0.0 0.00 0.00 0.00 90 1008.8
20260506011005 50 24 0.0 0.0 0.00 0.00 0.00 90 1008.8
20260506010504 50 24 0.0 0.0 0.00 0.00 0.00 90 1008.8
20260506010003 50 24 0.0 0.0 0.00 0.00 0.00 90 1008.8
20260506005503 50 24 0.0 0.0 0.00 0.00 0.00 89 1008.8
20260506005003 51 24 0.0 0.0 0.00 0.00 0.00 89 1008.8
20260506004503 51 24 0.0 0.0 0.00 0.00 0.00 89 1008.9
20260506004004 51 24 0.0 0.0 0.00 0.00 0.00 89 1008.9
20260506003502 51 24 0.0 0.0 0.00 0.00 0.00 88 1008.8
20260506003002 51 24 0.0 0.0 0.00 0.00 0.00 88 1008.7
20260506002502 52 24 0.0 0.0 0.00 0.00 0.00 88 1008.6
20260506002003 51 24 0.0 0.0 0.00 0.00 0.00 89 1008.7
20260506001504 51 24 0.0 0.0 0.00 0.00 0.00 89 1008.8
20260506001004 51 24 0.0 0.0 0.00 0.00 0.00 88 1008.8
20260506000503 52 24 0.0 0.0 0.00 0.00 0.00 88 1008.8
20260506000003 52 24 0.0 0.0 0.00 0.00 0.00 87 1008.8
20260505235503 52 24 0.0 0.0 0.00 0.00 0.00 86 1008.7
20260505235003 53 24 0.0 0.0 0.00 0.00 0.00 86 1008.7
20260505234505 53 24 0.0 0.0 0.00 0.00 0.00 86 1008.6
20260505234003 53 23 0.0 0.0 0.00 0.00 0.00 86 1008.8
20260505233503 53 24 0.0 0.0 0.00 0.00 0.00 85 1009.0
20260505233003 53 24 0.0 0.0 0.00 0.00 0.00 84 1008.6
20260505232503 54 24 0.0 0.0 0.00 0.00 0.00 83 1008.9
20260505232003 54 24 0.0 0.0 0.00 0.00 0.00 82 1008.8
20260505231504 55 55 0.0 0.0 0.00 0.00 0.00 81 1008.8
20260505231003 55 55 0.0 0.0 0.00 0.00 0.00 80 1008.8
20260505230502 56 55 0.0 0.0 0.00 0.00 0.00 78 1008.7
20260505230004 56 56 0.0 0.0 0.00 0.00 0.00 78 1008.7
20260505225502 56 42 0.0 1.7 0.00 0.00 0.00 81 1008.9